When you browse on this site, cookies collect data to enhance your experience and personalize the content and advertising you see.
Visit our Privacy Policy to learn more. By continuing to use the site, you agree to this use of cookies and data.
  • In Lithuania
  • List of Countries
  • For 7 days
  • Water Temperature
  • Satellite Maps
  • Weather Map
  • Weather Widgets
  • user-avatar
    Login

    Hourly Weather Soldatskoe

    Today, 22 February, Friday

    Time Temperature Precipitation Wind Pressure Humidity
    00:00 -12°C° 0 mm 6 mps 742 mmHg 87%
    01:00 -12°C° 0 mm 6 mps 742 mmHg 88%
    02:00 -14°C° 0 mm 6 mps 743 mmHg 88%
    03:00 -14°C° 0 mm 5 mps 743 mmHg 88%
    04:00 -15°C° 0 mm 6 mps 743 mmHg 89%
    05:00 -15°C° 0 mm 6 mps 743 mmHg 89%
    06:00 -16°C° 0 mm 6 mps 744 mmHg 90%
    07:00 -16°C° 0 mm 6 mps 744 mmHg 89%
    08:00 -16°C° 0 mm 6 mps 744 mmHg 89%
    09:00 -15°C° 0 mm 6 mps 745 mmHg 89%
    10:00 -15°C° 0 mm 6 mps 745 mmHg 88%
    11:00 -14°C° 0 mm 6 mps 745 mmHg 86%
    12:00 -12°C° 0 mm 6 mps 746 mmHg 85%
    13:00 -12°C° 0 mm 5 mps 746 mmHg 84%
    14:00 -11°C° 0 mm 5 mps 747 mmHg 82%
    15:00 -11°C° 0 mm 5 mps 747 mmHg 81%
    16:00 -10°C° 0 mm 4 mps 748 mmHg 83%
    17:00 -11°C° 0 mm 4 mps 749 mmHg 86%
    18:00 -12°C° 0 mm 3 mps 749 mmHg 88%
    19:00 -13°C° 0 mm 3 mps 750 mmHg 89%
    20:00 -13°C° 0 mm 3 mps 751 mmHg 90%
    21:00 -14°C° 0 mm 3 mps 752 mmHg 92%
    22:00 -14°C° 0 mm 3 mps 752 mmHg 92%
    23:00 -15°C° 0 mm 3 mps 753 mmHg 93%

    Tomorrow, 23 February, Saturday

    Time Temperature Precipitation Wind Pressure Humidity
    00:00 -15°C° 0 mm 3 mps 754 mmHg 94%
    01:00 -15°C° 0 mm 3 mps 754 mmHg 94%
    02:00 -15°C° 0 mm 3 mps 755 mmHg 95%
    03:00 -15°C° 0 mm 3 mps 756 mmHg 95%
    04:00 -14°C° 0 mm 3 mps 756 mmHg 95%
    05:00 -14°C° 0 mm 3 mps 757 mmHg 94%
    06:00 -13°C° 0 mm 3 mps 757 mmHg 94%
    07:00 -13°C° 0 mm 3 mps 758 mmHg 94%
    08:00 -12°C° 0 mm 3 mps 759 mmHg 93%
    09:00 -12°C° 0 mm 4 mps 759 mmHg 93%
    10:00 -12°C° 0 mm 4 mps 760 mmHg 92%
    11:00 -11°C° 0 mm 4 mps 760 mmHg 91%
    12:00 -11°C° 0 mm 4 mps 760 mmHg 90%
    13:00 -11°C° 0 mm 4 mps 760 mmHg 89%
    14:00 -11°C° 0 mm 4 mps 760 mmHg 89%
    15:00 -11°C° 0 mm 4 mps 760 mmHg 88%
    16:00 -12°C° 0 mm 4 mps 760 mmHg 89%
    17:00 -12°C° 0 mm 3 mps 760 mmHg 90%
    18:00 -13°C° 0 mm 3 mps 760 mmHg 90%
    19:00 -14°C° 0 mm 3 mps 761 mmHg 91%
    20:00 -15°C° 0 mm 2 mps 761 mmHg 92%
    21:00 -16°C° 0 mm 2 mps 761 mmHg 94%
    22:00 -16°C° 0 mm 2 mps 761 mmHg 93%
    23:00 -17°C° 0 mm 2 mps 761 mmHg 93%

    Day after tomorrow, 24 February, Sunday

    Time Temperature Precipitation Wind Pressure Humidity
    00:00 -18°C° 0 mm 2 mps 760 mmHg 92%
    01:00 -18°C° 0 mm 2 mps 760 mmHg 91%
    02:00 -18°C° 0 mm 2 mps 760 mmHg 90%
    03:00 -18°C° 0 mm 2 mps 760 mmHg 89%
    04:00 -17°C° 0 mm 2 mps 759 mmHg 89%
    05:00 -18°C° 0 mm 3 mps 759 mmHg 89%
    06:00 -17°C° 0 mm 3 mps 758 mmHg 89%
    07:00 -16°C° 0 mm 3 mps 758 mmHg 90%
    08:00 -15°C° 0 mm 3 mps 758 mmHg 91%
    09:00 -14°C° 0 mm 3 mps 758 mmHg 92%
    10:00 -14°C° 0 mm 4 mps 758 mmHg 92%
    11:00 -11°C° 0 mm 4 mps 758 mmHg 92%
    12:00 -9°C° 0 mm 4 mps 757 mmHg 92%
    13:00 -8°C° 0 mm 5 mps 757 mmHg 91%
    14:00 -8°C° 0 mm 5 mps 756 mmHg 90%
    15:00 -7°C° 0 mm 5 mps 756 mmHg 90%
    16:00 -7°C° 0.1 mm 5 mps 756 mmHg 91%
    17:00 -5°C° 0.1 mm 4 mps 755 mmHg 92%
    18:00 -5°C° 0.1 mm 4 mps 755 mmHg 93%
    19:00 -5°C° 0.1 mm 4 mps 755 mmHg 93%
    20:00 -4°C° 0.1 mm 4 mps 755 mmHg 94%
    21:00 -3°C° 0.1 mm 4 mps 754 mmHg 94%
    22:00 -4°C° 0.2 mm 5 mps 754 mmHg 94%
    23:00 -2°C° 0.2 mm 5 mps 754 mmHg 94%

    25 February, Monday

    Time Temperature Precipitation Wind Pressure Humidity
    00:00 -2°C° 0.2 mm 5 mps 754 mmHg 93%
    01:00 -2°C° 0.1 mm 4 mps 754 mmHg 94%
    02:00 -1°C° 0.1 mm 4 mps 753 mmHg 94%
    03:00 -1°C° 0.1 mm 4 mps 753 mmHg 94%
    04:00 -1°C° 0 mm 4 mps 753 mmHg 95%
    05:00 -1°C° 0 mm 4 mps 753 mmHg 95%
    06:00 -1°C° 0 mm 4 mps 753 mmHg 95%
    07:00 -2°C° 0 mm 4 mps 752 mmHg 95%
    08:00 -2°C° 0 mm 4 mps 752 mmHg 94%
    09:00 -1°C° 0 mm 3 mps 752 mmHg 94%
    10:00 -2°C° 0.1 mm 4 mps 751 mmHg 96%
    11:00 -2°C° 0.1 mm 4 mps 751 mmHg 97%
    12:00 -1°C° 0.1 mm 4 mps 750 mmHg 99%
    13:00 -1°C° 0.8 mm 5 mps 750 mmHg 97%
    14:00 -1°C° 0.8 mm 5 mps 749 mmHg 96%
    15:00 -1°C° 0.8 mm 5 mps 749 mmHg 94%
    16:00 -1°C° 0.1 mm 5 mps 748 mmHg 94%
    17:00 -1°C° 0.1 mm 5 mps 748 mmHg 95%
    18:00 -1°C° 0.1 mm 5 mps 747 mmHg 95%
    19:00 -1°C° 0 mm 5 mps 747 mmHg 95%
    20:00 -1°C° 0 mm 5 mps 747 mmHg 94%
    21:00 -1°C° 0 mm 5 mps 746 mmHg 94%
    22:00 -1°C° 0 mm 5 mps 746 mmHg 93%
    23:00 -1°C° 0 mm 5 mps 745 mmHg 92%

    26 February, Tuesday

    Time Temperature Precipitation Wind Pressure Humidity
    00:00 -2°C° 0 mm 5 mps 745 mmHg 90%
    01:00 -2°C° 0.1 mm 5 mps 744 mmHg 91%
    02:00 -2°C° 0.1 mm 5 mps 744 mmHg 91%
    03:00 -3°C° 0.1 mm 6 mps 743 mmHg 91%
    04:00 -2°C° 0.1 mm 5 mps 743 mmHg 91%
    05:00 -4°C° 0.1 mm 5 mps 742 mmHg 91%
    06:00 -4°C° 0.1 mm 5 mps 742 mmHg 91%
    07:00 -4°C° 0.2 mm 5 mps 741 mmHg 91%
    08:00 -2°C° 0.2 mm 5 mps 741 mmHg 90%
    09:00 -3°C° 0.2 mm 6 mps 741 mmHg 90%
    10:00 -3°C° 0.1 mm 6 mps 741 mmHg 90%
    11:00 -3°C° 0.1 mm 6 mps 740 mmHg 90%
    12:00 -3°C° 0.1 mm 6 mps 740 mmHg 90%
    13:00 -3°C° 0.1 mm 6 mps 739 mmHg 89%
    14:00 -3°C° 0.1 mm 6 mps 739 mmHg 89%
    15:00 -2°C° 0.1 mm 5 mps 739 mmHg 88%
    16:00 -2°C° 0 mm 5 mps 739 mmHg 88%
    17:00 -3°C° 0 mm 4 mps 738 mmHg 89%
    18:00 -4°C° 0 mm 3 mps 738 mmHg 89%
    19:00 -4°C° 0.1 mm 3 mps 738 mmHg 90%
    20:00 -4°C° 0.1 mm 3 mps 738 mmHg 92%
    21:00 -4°C° 0.1 mm 4 mps 738 mmHg 93%
    22:00 -4°C° 0.1 mm 4 mps 738 mmHg 93%
    23:00 -4°C° 0.1 mm 4 mps 738 mmHg 94%

    27 February, Wednesday

    Time Temperature Precipitation Wind Pressure Humidity
    00:00 -4°C° 0.1 mm 4 mps 738 mmHg 95%
    01:00 -4°C° 0.1 mm 4 mps 738 mmHg 94%
    02:00 -4°C° 0.1 mm 4 mps 738 mmHg 94%
    03:00 -3°C° 0.1 mm 4 mps 739 mmHg 93%
    04:00 -3°C° 0.1 mm 4 mps 739 mmHg 93%
    05:00 -4°C° 0.1 mm 5 mps 739 mmHg 93%
    06:00 -4°C° 0.1 mm 5 mps 740 mmHg 93%
    07:00 -4°C° 0 mm 5 mps 740 mmHg 92%
    08:00 -4°C° 0 mm 5 mps 741 mmHg 92%
    09:00 -4°C° 0 mm 5 mps 742 mmHg 91%
    10:00 -2°C° 0.1 mm 5 mps 742 mmHg 92%
    11:00 -2°C° 0.1 mm 5 mps 742 mmHg 92%
    12:00 -2°C° 0.1 mm 5 mps 743 mmHg 92%
    13:00 -2°C° 0.1 mm 5 mps 743 mmHg 92%
    14:00 -2°C° 0.1 mm 5 mps 743 mmHg 92%
    15:00 -2°C° 0.1 mm 5 mps 744 mmHg 92%
    16:00 -2°C° 0 mm 4 mps 744 mmHg 92%
    17:00 -3°C° 0 mm 4 mps 744 mmHg 91%
    18:00 -2°C° 0 mm 3 mps 745 mmHg 90%
    19:00 -2°C° 0 mm 3 mps 745 mmHg 91%
    20:00 -4°C° 0 mm 3 mps 745 mmHg 92%
    21:00 -4°C° 0 mm 3 mps 745 mmHg 93%
    22:00 -4°C° 0 mm 3 mps 745 mmHg 94%
    23:00 -4°C° 0 mm 3 mps 745 mmHg 94%
    Show more